This is the latest recevied weather packets stored in our database for station/object 9A7DI-13. If no packets are shown the sender has not sent any weather packets the latest 10 day(s).
| Time | Temp. | Humidity | Pressure | Rain* | Wind** | Luminosity | Snow |
|---|---|---|---|---|---|---|---|
| 1777888031 | 23.89° C | 22% | 1026.3 hPa | - | - | - | - |
| 1777887431 | 23.33° C | 24% | 1026.3 hPa | - | - | - | - |
| 1777886831 | 22.78° C | 24% | 1026.5 hPa | - | - | - | - |
| 1777886231 | 22.22° C | 24% | 1026.7 hPa | - | - | - | - |
| 1777885631 | 23.33° C | 28% | 1026.7 hPa | - | - | - | - |
| 1777885031 | 22.78° C | 26% | 1026.8 hPa | - | - | - | - |
| 1777884431 | 22.22° C | 28% | 1026.9 hPa | - | - | - | - |
| 1777883831 | 21.67° C | 28% | 1027 hPa | - | - | - | - |
| 1777883231 | 22.22° C | 30% | 1026.8 hPa | - | - | - | - |
| 1777882631 | 21.67° C | 28% | 1026.9 hPa | - | - | - | - |
| 1777882031 | 21.11° C | 29% | 1027 hPa | - | - | - | - |
| 1777881431 | 21.11° C | 30% | 1026.9 hPa | - | - | - | - |
| 1777880831 | 20.56° C | 32% | 1026.9 hPa | - | - | - | - |
| 1777880231 | 20° C | 31% | 1026.9 hPa | - | - | - | - |
| 1777879631 | 20° C | 33% | 1027 hPa | - | - | - | - |
| 1777879031 | 20° C | 36% | 1026.9 hPa | - | - | - | - |
| 1777878431 | 18.89° C | 36% | 1026.8 hPa | - | - | - | - |
| 1777877831 | 18.89° C | 37% | 1026.7 hPa | - | - | - | - |
| 1777877231 | 19.44° C | 38% | 1026.7 hPa | - | - | - | - |
| 1777876631 | 16.11° C | 48% | 1026.8 hPa | - | - | - | - |
| 1777876031 | 16.11° C | 48% | 1026.9 hPa | - | - | - | - |
| 1777875431 | 16.11° C | 49% | 1026.8 hPa | - | - | - | - |
| 1777874831 | 15° C | 53% | 1026.9 hPa | - | - | - | - |
| 1777874231 | 13.33° C | 55% | 1027 hPa | - | - | - | - |
| 1777873631 | 13.33° C | 55% | 1027.2 hPa | - | - | - | - |
* Rain since midnight (hover to see other rain measurements)
** Current wind speed in m/s (hover to see current wind gust speed)